Вернуться в каталог

STARLINK-4480

АктивенСвязьVLEO
NORAD 53416·PAYLOAD·🇺🇸 United States

Запущен Aug 10, 2022 с Cape Canaveral Space Force Station

Loading…

Ближайшие Пролёты (ближайшие 24 часа)

TLE

СвежийSource: CelesTrak SupGP

Эпоха: Sep 15, 2026, 02:43 UTC

1 53416C 22097AE  26258.11368056  .00306930  00000+0  13858-1 0  2586
2 53416  53.1607 342.2200 0001205  99.3947 296.1162 15.20307224    19

Отслеживайте STARLINK-4480 в реальном времени с AllMySat

Download on the App Store